Location: Aboncourt
(47.7710°N, 5.9826°E)
Time: 03:12:55
(UTC+00:00)

COSMOS 2428 - Pass Details

Date: 05 July 2020
Orbit: 844 x 859 km, 70.9° (Epoch: 03 August)

Event Time Altitude Azimuth Distance (km) Brightness Sun altitude
Exits shadow 21:57:27 - 215° (SW) 3,357 5.5 -15.8°
Reaches altitude 10° 21:59:49 10° 218° (SW) 2,460 4.8 -16.0°
Maximum altitude 22:05:26 66° 300° (WNW) 924 3.1 -16.4°
Drops below altitude 10° 22:11:05 10° 23° (NNE) 2,479 5.8 -16.7°
Sets 22:13:35 0° 27° (NNE) 3,420 6.5 -16.9°
